* Astronomy

Members Login
Post Info TOPIC: Asteroid 2010 VQ11


L

Posts: 131433
Date:
Asteroid 2010 VQ11
Permalink  
 


Orbital elements:
2010 VQ11
Epoch 2012 Mar. 14.0 TT = JDT 2456000.5                 MPC
M  32.72557              (2000.0)            P               Q
n   0.00319244     Peri.  209.72220     +0.90948090     -0.41519691
a  45.6794784      Node   174.67343     +0.41217231     +0.89375359
e   0.1585384      Incl.   13.29900     +0.05439188     +0.16975287
P 309              H    5.7           G   0.15           U   5

MPEC 2012 - F15



__________________
Page 1 of 1  sorted by
Quick Reply

Please log in to post quick replies.



Create your own FREE Forum
Report Abuse
Powered by ActiveBoard